Вернуться в каталог

THORAD AGENA D DEB

АктивенSSO
NORAD 5025·DEBRIS·🇺🇸 United States

Запущен Apr 8, 1970 с Vandenberg Space Force Base

Loading…

Ближайшие Пролёты (ближайшие 24 часа)

TLE

СвежийSource: Space-Track

Эпоха: Sep 13, 2026, 10:08 UTC

1 05025U 70025HZ  26256.42237362  .00000175  00000-0  33997-3 0  9993
2 05025 100.0615 325.1562 0044867 157.1368 265.7580 13.50870658771316

Отслеживайте THORAD AGENA D DEB в реальном времени с AllMySat

Download on the App Store